When you browse on this site, cookies collect data to enhance your experience and personalize the content and advertising you see.
Visit our Privacy Policy to learn more. By continuing to use the site, you agree to this use of cookies and data.
EN

Hourly Weather Goianapolis

Today, 28 September, Monday

Time Temperature Precipitation Wind Pressure Humidity
00:00 +24°C° 0 mm 1 mps 677 mmHg 33%
01:00 +24°C° 0 mm 1 mps 677 mmHg 33%
02:00 +23°C° 0 mm 1 mps 677 mmHg 33%
03:00 +23°C° 0 mm 1 mps 676 mmHg 33%
04:00 +23°C° 0 mm 1 mps 676 mmHg 33%
05:00 +22°C° 0 mm 1 mps 676 mmHg 34%
06:00 +22°C° 0 mm 1 mps 676 mmHg 34%
07:00 +26°C° 0 mm 1 mps 678 mmHg 29%
08:00 +29°C° 0 mm 2 mps 679 mmHg 24%
09:00 +34°C° 0 mm 2 mps 680 mmHg 19%
10:00 +35°C° 0 mm 2 mps 680 mmHg 17%
11:00 +37°C° 0 mm 2 mps 680 mmHg 16%
12:00 +38°C° 0 mm 2 mps 680 mmHg 14%
13:00 +38°C° 0 mm 2 mps 679 mmHg 13%
14:00 +39°C° 0 mm 2 mps 678 mmHg 13%
15:00 +39°C° 0 mm 2 mps 678 mmHg 12%
16:00 +37°C° 0 mm 2 mps 677 mmHg 14%
17:00 +35°C° 0 mm 2 mps 677 mmHg 16%
18:00 +32°C° 0 mm 2 mps 676 mmHg 18%
19:00 +30°C° 0 mm 2 mps 676 mmHg 19%
20:00 +29°C° 0 mm 1 mps 677 mmHg 20%
21:00 +27°C° 0 mm 1 mps 677 mmHg 21%
22:00 +27°C° 0 mm 1 mps 677 mmHg 23%
23:00 +26°C° 0 mm 1 mps 677 mmHg 24%

Tomorrow, 29 September, Tuesday

Time Temperature Precipitation Wind Pressure Humidity
00:00 +25°C° 0 mm 1 mps 677 mmHg 25%
01:00 +25°C° 0 mm 1 mps 677 mmHg 25%
02:00 +25°C° 0 mm 1 mps 676 mmHg 25%
03:00 +24°C° 0 mm 1 mps 676 mmHg 25%
04:00 +24°C° 0 mm 1 mps 676 mmHg 26%
05:00 +24°C° 0 mm 1 mps 676 mmHg 27%
06:00 +23°C° 0 mm 2 mps 676 mmHg 28%
07:00 +26°C° 0 mm 3 mps 678 mmHg 25%
08:00 +30°C° 0 mm 4 mps 679 mmHg 21%
09:00 +34°C° 0 mm 5 mps 680 mmHg 18%
10:00 +35°C° 0 mm 5 mps 680 mmHg 16%
11:00 +37°C° 0 mm 4 mps 680 mmHg 14%
12:00 +40°C° 0 mm 4 mps 680 mmHg 12%
13:00 +40°C° 0 mm 4 mps 679 mmHg 12%
14:00 +39°C° 0 mm 3 mps 678 mmHg 11%
15:00 +40°C° 0 mm 3 mps 678 mmHg 11%
16:00 +38°C° 0 mm 3 mps 677 mmHg 13%
17:00 +36°C° 0 mm 2 mps 677 mmHg 14%
18:00 +32°C° 0 mm 2 mps 676 mmHg 16%
19:00 +31°C° 0 mm 2 mps 677 mmHg 17%
20:00 +29°C° 0 mm 2 mps 677 mmHg 18%
21:00 +28°C° 0 mm 2 mps 678 mmHg 19%
22:00 +27°C° 0 mm 2 mps 678 mmHg 20%
23:00 +27°C° 0 mm 2 mps 678 mmHg 21%

Day after tomorrow, 30 September, Wednesday

Time Temperature Precipitation Wind Pressure Humidity
00:00 +27°C° 0 mm 2 mps 678 mmHg 22%
01:00 +26°C° 0 mm 2 mps 677 mmHg 23%
02:00 +26°C° 0 mm 2 mps 677 mmHg 23%
03:00 +25°C° 0 mm 2 mps 676 mmHg 24%
04:00 +25°C° 0 mm 3 mps 677 mmHg 25%
05:00 +25°C° 0 mm 4 mps 677 mmHg 27%
06:00 +26°C° 0 mm 5 mps 678 mmHg 28%
07:00 +28°C° 0 mm 6 mps 679 mmHg 27%
08:00 +30°C° 0 mm 6 mps 679 mmHg 26%
09:00 +33°C° 0 mm 7 mps 680 mmHg 25%
10:00 +35°C° 0 mm 6 mps 680 mmHg 22%
11:00 +38°C° 0 mm 6 mps 680 mmHg 19%
12:00 +39°C° 0 mm 5 mps 680 mmHg 16%
13:00 +39°C° 0 mm 5 mps 679 mmHg 16%
14:00 +40°C° 0 mm 5 mps 678 mmHg 15%
15:00 +40°C° 0 mm 5 mps 678 mmHg 15%
16:00 +37°C° 0 mm 4 mps 677 mmHg 17%
17:00 +35°C° 0 mm 3 mps 677 mmHg 19%
18:00 +32°C° 0 mm 2 mps 676 mmHg 21%
19:00 +31°C° 0 mm 2 mps 677 mmHg 23%
20:00 +29°C° 0 mm 2 mps 677 mmHg 25%
21:00 +28°C° 0 mm 2 mps 677 mmHg 28%
22:00 +27°C° 0 mm 2 mps 677 mmHg 29%
23:00 +27°C° 0 mm 2 mps 677 mmHg 31%

1 October, Thursday

Time Temperature Precipitation Wind Pressure Humidity
00:00 +26°C° 0 mm 3 mps 677 mmHg 32%
01:00 +26°C° 0 mm 3 mps 677 mmHg 33%
02:00 +26°C° 0 mm 3 mps 677 mmHg 33%
03:00 +26°C° 0 mm 3 mps 677 mmHg 34%
04:00 +26°C° 0 mm 3 mps 677 mmHg 36%
05:00 +25°C° 0 mm 4 mps 677 mmHg 38%
06:00 +25°C° 0 mm 4 mps 677 mmHg 40%
07:00 +27°C° 0 mm 4 mps 678 mmHg 37%
08:00 +29°C° 0 mm 5 mps 679 mmHg 35%
09:00 +32°C° 0 mm 5 mps 680 mmHg 33%
10:00 +34°C° 0 mm 5 mps 680 mmHg 28%
11:00 +35°C° 0 mm 5 mps 679 mmHg 24%
12:00 +37°C° 0 mm 5 mps 679 mmHg 20%
13:00 +39°C° 0 mm 5 mps 679 mmHg 19%
14:00 +38°C° 0 mm 4 mps 678 mmHg 18%
15:00 +38°C° 0 mm 4 mps 677 mmHg 16%
16:00 +37°C° 0 mm 3 mps 677 mmHg 19%
17:00 +35°C° 0 mm 3 mps 676 mmHg 21%
18:00 +32°C° 0 mm 2 mps 676 mmHg 24%
19:00 +30°C° 0 mm 2 mps 676 mmHg 25%
20:00 +29°C° 0 mm 3 mps 676 mmHg 27%
21:00 +27°C° 0 mm 3 mps 677 mmHg 29%
22:00 +27°C° 0 mm 3 mps 677 mmHg 30%
23:00 +26°C° 0 mm 3 mps 677 mmHg 31%

2 October, Friday

Time Temperature Precipitation Wind Pressure Humidity
00:00 +26°C° 0 mm 3 mps 677 mmHg 32%
01:00 +25°C° 0 mm 3 mps 677 mmHg 32%
02:00 +24°C° 0 mm 2 mps 676 mmHg 32%
03:00 +24°C° 0 mm 2 mps 676 mmHg 32%
04:00 +23°C° 0 mm 2 mps 676 mmHg 33%
05:00 +23°C° 0 mm 2 mps 676 mmHg 33%
06:00 +21°C° 0 mm 2 mps 676 mmHg 34%
07:00 +25°C° 0 mm 3 mps 677 mmHg 30%
08:00 +28°C° 0 mm 4 mps 679 mmHg 26%
09:00 +32°C° 0 mm 5 mps 680 mmHg 22%
10:00 +35°C° 0 mm 4 mps 680 mmHg 19%
11:00 +37°C° 0 mm 3 mps 680 mmHg 16%
12:00 +39°C° 0 mm 2 mps 680 mmHg 14%
13:00 +39°C° 0 mm 2 mps 679 mmHg 13%
14:00 +40°C° 0 mm 2 mps 678 mmHg 12%
15:00 +40°C° 0 mm 2 mps 678 mmHg 11%
16:00 +38°C° 0 mm 2 mps 677 mmHg 13%
17:00 +36°C° 0 mm 2 mps 677 mmHg 15%
18:00 +34°C° 0 mm 2 mps 676 mmHg 16%
19:00 +31°C° 0 mm 2 mps 677 mmHg 18%
20:00 +30°C° 0 mm 2 mps 677 mmHg 19%
21:00 +28°C° 0 mm 3 mps 677 mmHg 20%
22:00 +28°C° 0 mm 3 mps 677 mmHg 21%
23:00 +27°C° 0 mm 3 mps 677 mmHg 23%

3 October, Saturday

Time Temperature Precipitation Wind Pressure Humidity
00:00 +27°C° 0 mm 3 mps 677 mmHg 24%
01:00 +26°C° 0 mm 3 mps 677 mmHg 26%
02:00 +25°C° 0 mm 2 mps 676 mmHg 27%
03:00 +25°C° 0 mm 2 mps 676 mmHg 28%
04:00 +24°C° 0 mm 2 mps 676 mmHg 29%
05:00 +24°C° 0 mm 2 mps 677 mmHg 30%
06:00 +24°C° 0 mm 3 mps 677 mmHg 31%
07:00 +27°C° 0 mm 3 mps 678 mmHg 27%
08:00 +30°C° 0 mm 3 mps 679 mmHg 24%
09:00 +34°C° 0 mm 4 mps 680 mmHg 21%
10:00 +36°C° 0 mm 4 mps 680 mmHg 18%
11:00 +38°C° 0 mm 4 mps 680 mmHg 15%
12:00 +41°C° 0 mm 4 mps 680 mmHg 13%
13:00 +41°C° 0 mm 4 mps 679 mmHg 12%
14:00 +41°C° 0 mm 4 mps 679 mmHg 12%
15:00 +41°C° 0 mm 4 mps 678 mmHg 11%
16:00 +38°C° 0 mm 3 mps 678 mmHg 13%
17:00 +36°C° 0 mm 3 mps 677 mmHg 15%
18:00 +34°C° 0 mm 3 mps 677 mmHg 17%
19:00 +33°C° 0 mm 3 mps 677 mmHg 19%
20:00 +30°C° 0 mm 3 mps 677 mmHg 21%
21:00 +28°C° 0 mm 3 mps 678 mmHg 23%
22:00 +28°C° 0 mm 3 mps 678 mmHg 24%
23:00 +27°C° 0 mm 3 mps 678 mmHg 25%
Show more